Index of /20260504/WXO-DD/model_rdps/10km/06/015
Name Last modified Size Description
Parent Directory -
20260504T06Z_MSC_RDPS_AbsoluteVorticity_IsbL-0250_RLatLon0.09_PT015H.grib2 2026-05-04 08:43 616K
20260504T06Z_MSC_RDPS_AbsoluteVorticity_IsbL-0500_RLatLon0.09_PT015H.grib2 2026-05-04 08:43 570K
20260504T06Z_MSC_RDPS_AbsoluteVorticity_IsbL-0700_RLatLon0.09_PT015H.grib2 2026-05-04 08:43 624K
20260504T06Z_MSC_RDPS_AbsoluteVorticity_IsbL-0850_RLatLon0.09_PT015H.grib2 2026-05-04 08:43 794K
20260504T06Z_MSC_RDPS_AirTemp_AGL-120m_RLatLon0.09_PT015H.grib2 2026-05-04 08:43 393K
20260504T06Z_MSC_RDPS_AirTemp_AGL-2m_RLatLon0.09_PT015H.grib2 2026-05-04 08:43 628K
20260504T06Z_MSC_RDPS_AirTemp_AGL-40m_RLatLon0.09_PT015H.grib2 2026-05-04 08:43 402K
20260504T06Z_MSC_RDPS_AirTemp_AGL-80m_RLatLon0.09_PT015H.grib2 2026-05-04 08:43 397K
20260504T06Z_MSC_RDPS_AirTemp_IsbL-0001_RLatLon0.09_PT015H.grib2 2026-05-04 08:43 284K
20260504T06Z_MSC_RDPS_AirTemp_IsbL-0005_RLatLon0.09_PT015H.grib2 2026-05-04 08:43 289K
20260504T06Z_MSC_RDPS_AirTemp_IsbL-0010_RLatLon0.09_PT015H.grib2 2026-05-04 08:43 298K
20260504T06Z_MSC_RDPS_AirTemp_IsbL-0020_RLatLon0.09_PT015H.grib2 2026-05-04 08:43 316K
20260504T06Z_MSC_RDPS_AirTemp_IsbL-0030_RLatLon0.09_PT015H.grib2 2026-05-04 08:43 334K
20260504T06Z_MSC_RDPS_AirTemp_IsbL-0050_RLatLon0.09_PT015H.grib2 2026-05-04 08:43 315K
20260504T06Z_MSC_RDPS_AirTemp_IsbL-0100_RLatLon0.09_PT015H.grib2 2026-05-04 08:43 431K
20260504T06Z_MSC_RDPS_AirTemp_IsbL-0150_RLatLon0.09_PT015H.grib2 2026-05-04 08:43 421K
20260504T06Z_MSC_RDPS_AirTemp_IsbL-0175_RLatLon0.09_PT015H.grib2 2026-05-04 08:43 414K
20260504T06Z_MSC_RDPS_AirTemp_IsbL-0200_RLatLon0.09_PT015H.grib2 2026-05-04 08:43 418K
20260504T06Z_MSC_RDPS_AirTemp_IsbL-0225_RLatLon0.09_PT015H.grib2 2026-05-04 08:43 421K
20260504T06Z_MSC_RDPS_AirTemp_IsbL-0250_RLatLon0.09_PT015H.grib2 2026-05-04 08:43 427K
20260504T06Z_MSC_RDPS_AirTemp_IsbL-0275_RLatLon0.09_PT015H.grib2 2026-05-04 08:43 409K
20260504T06Z_MSC_RDPS_AirTemp_IsbL-0300_RLatLon0.09_PT015H.grib2 2026-05-04 08:43 414K
20260504T06Z_MSC_RDPS_AirTemp_IsbL-0350_RLatLon0.09_PT015H.grib2 2026-05-04 08:43 429K
20260504T06Z_MSC_RDPS_AirTemp_IsbL-0400_RLatLon0.09_PT015H.grib2 2026-05-04 08:43 434K
20260504T06Z_MSC_RDPS_AirTemp_IsbL-0450_RLatLon0.09_PT015H.grib2 2026-05-04 08:43 407K
20260504T06Z_MSC_RDPS_AirTemp_IsbL-0500_RLatLon0.09_PT015H.grib2 2026-05-04 08:43 419K
20260504T06Z_MSC_RDPS_AirTemp_IsbL-0550_RLatLon0.09_PT015H.grib2 2026-05-04 08:43 438K
20260504T06Z_MSC_RDPS_AirTemp_IsbL-0600_RLatLon0.09_PT015H.grib2 2026-05-04 08:43 456K
20260504T06Z_MSC_RDPS_AirTemp_IsbL-0650_RLatLon0.09_PT015H.grib2 2026-05-04 08:43 472K
20260504T06Z_MSC_RDPS_AirTemp_IsbL-0700_RLatLon0.09_PT015H.grib2 2026-05-04 08:43 496K
20260504T06Z_MSC_RDPS_AirTemp_IsbL-0750_RLatLon0.09_PT015H.grib2 2026-05-04 08:43 419K
20260504T06Z_MSC_RDPS_AirTemp_IsbL-0800_RLatLon0.09_PT015H.grib2 2026-05-04 08:43 465K
20260504T06Z_MSC_RDPS_AirTemp_IsbL-0850_RLatLon0.09_PT015H.grib2 2026-05-04 08:43 513K
20260504T06Z_MSC_RDPS_AirTemp_IsbL-0875_RLatLon0.09_PT015H.grib2 2026-05-04 08:43 527K
20260504T06Z_MSC_RDPS_AirTemp_IsbL-0900_RLatLon0.09_PT015H.grib2 2026-05-04 08:43 533K
20260504T06Z_MSC_RDPS_AirTemp_IsbL-0925_RLatLon0.09_PT015H.grib2 2026-05-04 08:43 528K
20260504T06Z_MSC_RDPS_AirTemp_IsbL-0950_RLatLon0.09_PT015H.grib2 2026-05-04 08:43 530K
20260504T06Z_MSC_RDPS_AirTemp_IsbL-0970_RLatLon0.09_PT015H.grib2 2026-05-04 08:43 523K
20260504T06Z_MSC_RDPS_AirTemp_IsbL-0985_RLatLon0.09_PT015H.grib2 2026-05-04 08:43 510K
20260504T06Z_MSC_RDPS_AirTemp_IsbL-1000_RLatLon0.09_PT015H.grib2 2026-05-04 08:43 498K
20260504T06Z_MSC_RDPS_AirTemp_IsbL-1015_RLatLon0.09_PT015H.grib2 2026-05-04 08:43 499K
20260504T06Z_MSC_RDPS_Albedo_Sfc_RLatLon0.09_PT015H.grib2 2026-05-04 08:43 161K
20260504T06Z_MSC_RDPS_CAPE_Sfc_RLatLon0.09_PT015H.grib2 2026-05-04 08:43 1.7M
20260504T06Z_MSC_RDPS_CIN_Sfc_RLatLon0.09_PT015H.grib2 2026-05-04 08:43 1.3M
20260504T06Z_MSC_RDPS_CloudWater_EAtm_RLatLon0.09_PT015H.grib2 2026-05-04 08:43 223K
20260504T06Z_MSC_RDPS_ConvectivePrecip-Accum_Sfc_RLatLon0.09_PT015H.grib2 2026-05-04 08:43 708K
20260504T06Z_MSC_RDPS_DewPointDepression_AGL-2m_RLatLon0.09_PT015H.grib2 2026-05-04 08:43 425K
20260504T06Z_MSC_RDPS_DewPointDepression_IsbL-0001_RLatLon0.09_PT015H.grib2 2026-05-04 08:43 193
20260504T06Z_MSC_RDPS_DewPointDepression_IsbL-0005_RLatLon0.09_PT015H.grib2 2026-05-04 08:43 193
20260504T06Z_MSC_RDPS_DewPointDepression_IsbL-0010_RLatLon0.09_PT015H.grib2 2026-05-04 08:43 193
20260504T06Z_MSC_RDPS_DewPointDepression_IsbL-0020_RLatLon0.09_PT015H.grib2 2026-05-04 08:43 193
20260504T06Z_MSC_RDPS_DewPointDepression_IsbL-0030_RLatLon0.09_PT015H.grib2 2026-05-04 08:43 193
20260504T06Z_MSC_RDPS_DewPointDepression_IsbL-0050_RLatLon0.09_PT015H.grib2 2026-05-04 08:43 80K
20260504T06Z_MSC_RDPS_DewPointDepression_IsbL-0100_RLatLon0.09_PT015H.grib2 2026-05-04 08:43 118K
20260504T06Z_MSC_RDPS_DewPointDepression_IsbL-0150_RLatLon0.09_PT015H.grib2 2026-05-04 08:43 142K
20260504T06Z_MSC_RDPS_DewPointDepression_IsbL-0175_RLatLon0.09_PT015H.grib2 2026-05-04 08:43 182K
20260504T06Z_MSC_RDPS_DewPointDepression_IsbL-0200_RLatLon0.09_PT015H.grib2 2026-05-04 08:43 223K
20260504T06Z_MSC_RDPS_DewPointDepression_IsbL-0225_RLatLon0.09_PT015H.grib2 2026-05-04 08:43 265K
20260504T06Z_MSC_RDPS_DewPointDepression_IsbL-0250_RLatLon0.09_PT015H.grib2 2026-05-04 08:43 304K
20260504T06Z_MSC_RDPS_DewPointDepression_IsbL-0275_RLatLon0.09_PT015H.grib2 2026-05-04 08:43 311K
20260504T06Z_MSC_RDPS_DewPointDepression_IsbL-0300_RLatLon0.09_PT015H.grib2 2026-05-04 08:43 326K
20260504T06Z_MSC_RDPS_DewPointDepression_IsbL-0350_RLatLon0.09_PT015H.grib2 2026-05-04 08:43 334K
20260504T06Z_MSC_RDPS_DewPointDepression_IsbL-0400_RLatLon0.09_PT015H.grib2 2026-05-04 08:43 344K
20260504T06Z_MSC_RDPS_DewPointDepression_IsbL-0450_RLatLon0.09_PT015H.grib2 2026-05-04 08:43 349K
20260504T06Z_MSC_RDPS_DewPointDepression_IsbL-0500_RLatLon0.09_PT015H.grib2 2026-05-04 08:43 353K
20260504T06Z_MSC_RDPS_DewPointDepression_IsbL-0550_RLatLon0.09_PT015H.grib2 2026-05-04 08:43 360K
20260504T06Z_MSC_RDPS_DewPointDepression_IsbL-0600_RLatLon0.09_PT015H.grib2 2026-05-04 08:43 372K
20260504T06Z_MSC_RDPS_DewPointDepression_IsbL-0650_RLatLon0.09_PT015H.grib2 2026-05-04 08:43 385K
20260504T06Z_MSC_RDPS_DewPointDepression_IsbL-0700_RLatLon0.09_PT015H.grib2 2026-05-04 08:43 399K
20260504T06Z_MSC_RDPS_DewPointDepression_IsbL-0750_RLatLon0.09_PT015H.grib2 2026-05-04 08:43 416K
20260504T06Z_MSC_RDPS_DewPointDepression_IsbL-0800_RLatLon0.09_PT015H.grib2 2026-05-04 08:43 456K
20260504T06Z_MSC_RDPS_DewPointDepression_IsbL-0850_RLatLon0.09_PT015H.grib2 2026-05-04 08:43 480K
20260504T06Z_MSC_RDPS_DewPointDepression_IsbL-0875_RLatLon0.09_PT015H.grib2 2026-05-04 08:43 478K
20260504T06Z_MSC_RDPS_DewPointDepression_IsbL-0900_RLatLon0.09_PT015H.grib2 2026-05-04 08:43 468K
20260504T06Z_MSC_RDPS_DewPointDepression_IsbL-0925_RLatLon0.09_PT015H.grib2 2026-05-04 08:43 455K
20260504T06Z_MSC_RDPS_DewPointDepression_IsbL-0950_RLatLon0.09_PT015H.grib2 2026-05-04 08:43 448K
20260504T06Z_MSC_RDPS_DewPointDepression_IsbL-0970_RLatLon0.09_PT015H.grib2 2026-05-04 08:43 441K
20260504T06Z_MSC_RDPS_DewPointDepression_IsbL-0985_RLatLon0.09_PT015H.grib2 2026-05-04 08:43 436K
20260504T06Z_MSC_RDPS_DewPointDepression_IsbL-1000_RLatLon0.09_PT015H.grib2 2026-05-04 08:43 432K
20260504T06Z_MSC_RDPS_DewPointDepression_IsbL-1015_RLatLon0.09_PT015H.grib2 2026-05-04 08:43 424K
20260504T06Z_MSC_RDPS_DewPoint_AGL-2m_RLatLon0.09_PT015H.grib2 2026-05-04 08:43 311K
20260504T06Z_MSC_RDPS_DownwardLongwaveRadiationFlux-Accum_Sfc_RLatLon0.09_PT015H.grib2 2026-05-04 08:43 510K
20260504T06Z_MSC_RDPS_DownwardShortwaveRadiationFlux-Accum_NTAtm_RLatLon0.09_PT015H.grib2 2026-05-04 08:43 120K
20260504T06Z_MSC_RDPS_DownwardShortwaveRadiationFlux-Accum_Sfc_RLatLon0.09_PT015H.grib2 2026-05-04 08:43 583K
20260504T06Z_MSC_RDPS_FreezingRain-Accum1h_Sfc_RLatLon0.09_PT015H.grib2 2026-05-04 08:43 12K
20260504T06Z_MSC_RDPS_FreezingRain-Accum3h_Sfc_RLatLon0.09_PT015H.grib2 2026-05-04 08:43 13K
20260504T06Z_MSC_RDPS_FreezingRain-Accum_Sfc_RLatLon0.09_PT015H.grib2 2026-05-04 08:43 79K
20260504T06Z_MSC_RDPS_GeopotentialHeight_IsbL-0001_RLatLon0.09_PT015H.grib2 2026-05-04 08:43 325K
20260504T06Z_MSC_RDPS_GeopotentialHeight_IsbL-0005_RLatLon0.09_PT015H.grib2 2026-05-04 08:43 343K
20260504T06Z_MSC_RDPS_GeopotentialHeight_IsbL-0010_RLatLon0.09_PT015H.grib2 2026-05-04 08:43 311K
20260504T06Z_MSC_RDPS_GeopotentialHeight_IsbL-0020_RLatLon0.09_PT015H.grib2 2026-05-04 08:43 408K
20260504T06Z_MSC_RDPS_GeopotentialHeight_IsbL-0030_RLatLon0.09_PT015H.grib2 2026-05-04 08:43 411K
20260504T06Z_MSC_RDPS_GeopotentialHeight_IsbL-0050_RLatLon0.09_PT015H.grib2 2026-05-04 08:43 314K
20260504T06Z_MSC_RDPS_GeopotentialHeight_IsbL-0100_RLatLon0.09_PT015H.grib2 2026-05-04 08:43 292K
20260504T06Z_MSC_RDPS_GeopotentialHeight_IsbL-0150_RLatLon0.09_PT015H.grib2 2026-05-04 08:43 235K
20260504T06Z_MSC_RDPS_GeopotentialHeight_IsbL-0175_RLatLon0.09_PT015H.grib2 2026-05-04 08:43 237K
20260504T06Z_MSC_RDPS_GeopotentialHeight_IsbL-0200_RLatLon0.09_PT015H.grib2 2026-05-04 08:43 240K
20260504T06Z_MSC_RDPS_GeopotentialHeight_IsbL-0225_RLatLon0.09_PT015H.grib2 2026-05-04 08:43 272K
20260504T06Z_MSC_RDPS_GeopotentialHeight_IsbL-0250_RLatLon0.09_PT015H.grib2 2026-05-04 08:43 272K
20260504T06Z_MSC_RDPS_GeopotentialHeight_IsbL-0275_RLatLon0.09_PT015H.grib2 2026-05-04 08:43 241K
20260504T06Z_MSC_RDPS_GeopotentialHeight_IsbL-0300_RLatLon0.09_PT015H.grib2 2026-05-04 08:43 240K
20260504T06Z_MSC_RDPS_GeopotentialHeight_IsbL-0350_RLatLon0.09_PT015H.grib2 2026-05-04 08:43 235K
20260504T06Z_MSC_RDPS_GeopotentialHeight_IsbL-0400_RLatLon0.09_PT015H.grib2 2026-05-04 08:43 232K
20260504T06Z_MSC_RDPS_GeopotentialHeight_IsbL-0450_RLatLon0.09_PT015H.grib2 2026-05-04 08:43 303K
20260504T06Z_MSC_RDPS_GeopotentialHeight_IsbL-0500_RLatLon0.09_PT015H.grib2 2026-05-04 08:43 298K
20260504T06Z_MSC_RDPS_GeopotentialHeight_IsbL-0550_RLatLon0.09_PT015H.grib2 2026-05-04 08:43 294K
20260504T06Z_MSC_RDPS_GeopotentialHeight_IsbL-0600_RLatLon0.09_PT015H.grib2 2026-05-04 08:43 263K
20260504T06Z_MSC_RDPS_GeopotentialHeight_IsbL-0650_RLatLon0.09_PT015H.grib2 2026-05-04 08:43 261K
20260504T06Z_MSC_RDPS_GeopotentialHeight_IsbL-0700_RLatLon0.09_PT015H.grib2 2026-05-04 08:43 344K
20260504T06Z_MSC_RDPS_GeopotentialHeight_IsbL-0750_RLatLon0.09_PT015H.grib2 2026-05-04 08:43 346K
20260504T06Z_MSC_RDPS_GeopotentialHeight_IsbL-0800_RLatLon0.09_PT015H.grib2 2026-05-04 08:43 353K
20260504T06Z_MSC_RDPS_GeopotentialHeight_IsbL-0850_RLatLon0.09_PT015H.grib2 2026-05-04 08:43 362K
20260504T06Z_MSC_RDPS_GeopotentialHeight_IsbL-0875_RLatLon0.09_PT015H.grib2 2026-05-04 08:43 363K
20260504T06Z_MSC_RDPS_GeopotentialHeight_IsbL-0900_RLatLon0.09_PT015H.grib2 2026-05-04 08:43 369K
20260504T06Z_MSC_RDPS_GeopotentialHeight_IsbL-0925_RLatLon0.09_PT015H.grib2 2026-05-04 08:43 372K
20260504T06Z_MSC_RDPS_GeopotentialHeight_IsbL-0950_RLatLon0.09_PT015H.grib2 2026-05-04 08:43 374K
20260504T06Z_MSC_RDPS_GeopotentialHeight_IsbL-0970_RLatLon0.09_PT015H.grib2 2026-05-04 08:43 381K
20260504T06Z_MSC_RDPS_GeopotentialHeight_IsbL-0985_RLatLon0.09_PT015H.grib2 2026-05-04 08:43 299K
20260504T06Z_MSC_RDPS_GeopotentialHeight_IsbL-1000_RLatLon0.09_PT015H.grib2 2026-05-04 08:43 308K
20260504T06Z_MSC_RDPS_GeopotentialHeight_IsbL-1015_RLatLon0.09_PT015H.grib2 2026-05-04 08:43 320K
20260504T06Z_MSC_RDPS_Humidex_Sfc_RLatLon0.09_PT015H.grib2 2026-05-04 08:43 2.4M
20260504T06Z_MSC_RDPS_IcePellets-Accum1h_Sfc_RLatLon0.09_PT015H.grib2 2026-05-04 08:43 4.6K
20260504T06Z_MSC_RDPS_IcePellets-Accum3h_Sfc_RLatLon0.09_PT015H.grib2 2026-05-04 08:43 6.1K
20260504T06Z_MSC_RDPS_IcePellets-Accum_Sfc_RLatLon0.09_PT015H.grib2 2026-05-04 08:43 12K
20260504T06Z_MSC_RDPS_KIndex_Sfc_RLatLon0.09_PT015H.grib2 2026-05-04 08:43 2.4M
20260504T06Z_MSC_RDPS_LatentHeatNetFlux_Sfc_RLatLon0.09_PT015H.grib2 2026-05-04 08:44 315K
20260504T06Z_MSC_RDPS_LiftedIndex-MU-VT_IsbL-0500_RLatLon0.09_PT015H.grib2 2026-05-04 08:44 2.4M
20260504T06Z_MSC_RDPS_NetLongwaveRadiationFlux-Accum_Sfc_RLatLon0.09_PT015H.grib2 2026-05-04 08:44 658K
20260504T06Z_MSC_RDPS_NetShortwaveRadiationFlux-Accum_Sfc_RLatLon0.09_PT015H.grib2 2026-05-04 08:44 579K
20260504T06Z_MSC_RDPS_PlanetaryBoundaryLayerHeight_Sfc_RLatLon0.09_PT015H.grib2 2026-05-04 08:44 1.0M
20260504T06Z_MSC_RDPS_Precip-Accum1h_Sfc_RLatLon0.09_PT015H.grib2 2026-05-04 08:44 1.2M
20260504T06Z_MSC_RDPS_Precip-Accum3h_Sfc_RLatLon0.09_PT015H.grib2 2026-05-04 08:44 1.3M
20260504T06Z_MSC_RDPS_Precip-Accum_Sfc_RLatLon0.09_PT015H.grib2 2026-05-04 08:44 1.7M
20260504T06Z_MSC_RDPS_PrecipRate_Sfc_RLatLon0.09_PT015H.grib2 2026-05-04 08:44 187K
20260504T06Z_MSC_RDPS_PrecipType-Instant_Sfc_RLatLon0.09_PT015H.grib2 2026-05-04 08:44 593K
20260504T06Z_MSC_RDPS_Pressure-Trend3h_Sfc_RLatLon0.09_PT015H.grib2 2026-05-04 08:44 1.2M
20260504T06Z_MSC_RDPS_Pressure_MSL_RLatLon0.09_PT015H.grib2 2026-05-04 08:44 333K
20260504T06Z_MSC_RDPS_Pressure_PVU-1.5_RLatLon0.09_PT015H.grib2 2026-05-04 08:44 2.5M
20260504T06Z_MSC_RDPS_Pressure_PVU-1_RLatLon0.09_PT015H.grib2 2026-05-04 08:44 2.4M
20260504T06Z_MSC_RDPS_Pressure_PVU-2_RLatLon0.09_PT015H.grib2 2026-05-04 08:44 2.4M
20260504T06Z_MSC_RDPS_Pressure_Sfc_RLatLon0.09_PT015H.grib2 2026-05-04 08:44 500K
20260504T06Z_MSC_RDPS_RadiativeTemp_Sfc_RLatLon0.09_PT015H.grib2 2026-05-04 08:44 326K
20260504T06Z_MSC_RDPS_Rain-Accum1h_Sfc_RLatLon0.09_PT015H.grib2 2026-05-04 08:44 552K
20260504T06Z_MSC_RDPS_Rain-Accum3h_Sfc_RLatLon0.09_PT015H.grib2 2026-05-04 08:44 647K
20260504T06Z_MSC_RDPS_Rain-Accum_Sfc_RLatLon0.09_PT015H.grib2 2026-05-04 08:44 1.3M
20260504T06Z_MSC_RDPS_RelativeHumidity_AGL-2m_RLatLon0.09_PT015H.grib2 2026-05-04 08:44 1.0M
20260504T06Z_MSC_RDPS_RelativeHumidity_IsbL-0010_RLatLon0.09_PT015H.grib2 2026-05-04 08:44 525K
20260504T06Z_MSC_RDPS_RelativeHumidity_IsbL-0020_RLatLon0.09_PT015H.grib2 2026-05-04 08:44 670K
20260504T06Z_MSC_RDPS_RelativeHumidity_IsbL-0030_RLatLon0.09_PT015H.grib2 2026-05-04 08:44 603K
20260504T06Z_MSC_RDPS_RelativeHumidity_IsbL-0050_RLatLon0.09_PT015H.grib2 2026-05-04 08:44 362K
20260504T06Z_MSC_RDPS_RelativeHumidity_IsbL-0100_RLatLon0.09_PT015H.grib2 2026-05-04 08:44 288K
20260504T06Z_MSC_RDPS_RelativeHumidity_IsbL-0150_RLatLon0.09_PT015H.grib2 2026-05-04 08:44 412K
20260504T06Z_MSC_RDPS_RelativeHumidity_IsbL-0175_RLatLon0.09_PT015H.grib2 2026-05-04 08:44 483K
20260504T06Z_MSC_RDPS_RelativeHumidity_IsbL-0200_RLatLon0.09_PT015H.grib2 2026-05-04 08:44 561K
20260504T06Z_MSC_RDPS_RelativeHumidity_IsbL-0225_RLatLon0.09_PT015H.grib2 2026-05-04 08:44 628K
20260504T06Z_MSC_RDPS_RelativeHumidity_IsbL-0250_RLatLon0.09_PT015H.grib2 2026-05-04 08:44 695K
20260504T06Z_MSC_RDPS_RelativeHumidity_IsbL-0275_RLatLon0.09_PT015H.grib2 2026-05-04 08:44 717K
20260504T06Z_MSC_RDPS_RelativeHumidity_IsbL-0300_RLatLon0.09_PT015H.grib2 2026-05-04 08:44 751K
20260504T06Z_MSC_RDPS_RelativeHumidity_IsbL-0350_RLatLon0.09_PT015H.grib2 2026-05-04 08:44 775K
20260504T06Z_MSC_RDPS_RelativeHumidity_IsbL-0400_RLatLon0.09_PT015H.grib2 2026-05-04 08:44 789K
20260504T06Z_MSC_RDPS_RelativeHumidity_IsbL-0450_RLatLon0.09_PT015H.grib2 2026-05-04 08:44 794K
20260504T06Z_MSC_RDPS_RelativeHumidity_IsbL-0500_RLatLon0.09_PT015H.grib2 2026-05-04 08:44 808K
20260504T06Z_MSC_RDPS_RelativeHumidity_IsbL-0550_RLatLon0.09_PT015H.grib2 2026-05-04 08:44 822K
20260504T06Z_MSC_RDPS_RelativeHumidity_IsbL-0600_RLatLon0.09_PT015H.grib2 2026-05-04 08:44 844K
20260504T06Z_MSC_RDPS_RelativeHumidity_IsbL-0650_RLatLon0.09_PT015H.grib2 2026-05-04 08:44 864K
20260504T06Z_MSC_RDPS_RelativeHumidity_IsbL-0700_RLatLon0.09_PT015H.grib2 2026-05-04 08:44 893K
20260504T06Z_MSC_RDPS_RelativeHumidity_IsbL-0750_RLatLon0.09_PT015H.grib2 2026-05-04 08:44 931K
20260504T06Z_MSC_RDPS_RelativeHumidity_IsbL-0800_RLatLon0.09_PT015H.grib2 2026-05-04 08:44 1.0M
20260504T06Z_MSC_RDPS_RelativeHumidity_IsbL-0850_RLatLon0.09_PT015H.grib2 2026-05-04 08:44 1.0M
20260504T06Z_MSC_RDPS_RelativeHumidity_IsbL-0875_RLatLon0.09_PT015H.grib2 2026-05-04 08:44 1.1M
20260504T06Z_MSC_RDPS_RelativeHumidity_IsbL-0900_RLatLon0.09_PT015H.grib2 2026-05-04 08:44 1.1M
20260504T06Z_MSC_RDPS_RelativeHumidity_IsbL-0925_RLatLon0.09_PT015H.grib2 2026-05-04 08:44 1.1M
20260504T06Z_MSC_RDPS_RelativeHumidity_IsbL-0950_RLatLon0.09_PT015H.grib2 2026-05-04 08:44 1.1M
20260504T06Z_MSC_RDPS_RelativeHumidity_IsbL-0970_RLatLon0.09_PT015H.grib2 2026-05-04 08:44 1.0M
20260504T06Z_MSC_RDPS_RelativeHumidity_IsbL-0985_RLatLon0.09_PT015H.grib2 2026-05-04 08:44 1.0M
20260504T06Z_MSC_RDPS_RelativeHumidity_IsbL-1000_RLatLon0.09_PT015H.grib2 2026-05-04 08:44 1.0M
20260504T06Z_MSC_RDPS_RelativeHumidity_IsbL-1015_RLatLon0.09_PT015H.grib2 2026-05-04 08:44 1.0M
20260504T06Z_MSC_RDPS_Runoff-Accum_Sfc_RLatLon0.09_PT015H.grib2 2026-05-04 08:44 39K
20260504T06Z_MSC_RDPS_SWEATIndex_Sfc_RLatLon0.09_PT015H.grib2 2026-05-04 08:44 2.5M
20260504T06Z_MSC_RDPS_SeeingIndex_EAtm_RLatLon0.09_PT015H.grib2 2026-05-04 08:44 1.0M
20260504T06Z_MSC_RDPS_SensibleHeatNetFlux_Sfc_RLatLon0.09_PT015H.grib2 2026-05-04 08:44 364K
20260504T06Z_MSC_RDPS_ShowalterIndex_IsbL-0500_RLatLon0.09_PT015H.grib2 2026-05-04 08:44 2.6M
20260504T06Z_MSC_RDPS_SkyTransparencyIndex_EAtm_RLatLon0.09_PT015H.grib2 2026-05-04 08:44 731K
20260504T06Z_MSC_RDPS_Snow-Accum1h_Sfc_RLatLon0.09_PT015H.grib2 2026-05-04 08:44 387K
20260504T06Z_MSC_RDPS_Snow-Accum3h_Sfc_RLatLon0.09_PT015H.grib2 2026-05-04 08:44 395K
20260504T06Z_MSC_RDPS_Snow-Accum_Sfc_RLatLon0.09_PT015H.grib2 2026-05-04 08:44 632K
20260504T06Z_MSC_RDPS_SnowDensity_Sfc_RLatLon0.09_PT015H.grib2 2026-05-04 08:44 168K
20260504T06Z_MSC_RDPS_SnowDepth_Sfc_RLatLon0.09_PT015H.grib2 2026-05-04 08:44 650K
20260504T06Z_MSC_RDPS_SoilTemp_DBS-0to10cm_RLatLon0.09_PT015H.grib2 2026-05-04 08:44 221K
20260504T06Z_MSC_RDPS_SoilTemp_Sfc_RLatLon0.09_PT015H.grib2 2026-05-04 08:44 289K
20260504T06Z_MSC_RDPS_SoilVolumetricIceContent_Sfc_RLatLon0.09_PT015H.grib2 2026-05-04 08:44 154K
20260504T06Z_MSC_RDPS_SoilVolumetricWaterContent_DBS-0to10cm_RLatLon0.09_PT015H.grib2 2026-05-04 08:44 275K
20260504T06Z_MSC_RDPS_SoilVolumetricWaterContent_DBS-0to1cm_RLatLon0.09_PT015H.grib2 2026-05-04 08:44 336K
20260504T06Z_MSC_RDPS_SpecificHumidity_AGL-120m_RLatLon0.09_PT015H.grib2 2026-05-04 08:44 497K
20260504T06Z_MSC_RDPS_SpecificHumidity_AGL-2m_RLatLon0.09_PT015H.grib2 2026-05-04 08:44 670K
20260504T06Z_MSC_RDPS_SpecificHumidity_AGL-40m_RLatLon0.09_PT015H.grib2 2026-05-04 08:44 503K
20260504T06Z_MSC_RDPS_SpecificHumidity_AGL-80m_RLatLon0.09_PT015H.grib2 2026-05-04 08:44 499K
20260504T06Z_MSC_RDPS_SpecificHumidity_IsbL-0001_RLatLon0.09_PT015H.grib2 2026-05-04 08:44 302K
20260504T06Z_MSC_RDPS_SpecificHumidity_IsbL-0005_RLatLon0.09_PT015H.grib2 2026-05-04 08:44 370K
20260504T06Z_MSC_RDPS_SpecificHumidity_IsbL-0010_RLatLon0.09_PT015H.grib2 2026-05-04 08:44 400K
20260504T06Z_MSC_RDPS_SpecificHumidity_IsbL-0020_RLatLon0.09_PT015H.grib2 2026-05-04 08:44 383K
20260504T06Z_MSC_RDPS_SpecificHumidity_IsbL-0030_RLatLon0.09_PT015H.grib2 2026-05-04 08:44 378K
20260504T06Z_MSC_RDPS_SpecificHumidity_IsbL-0050_RLatLon0.09_PT015H.grib2 2026-05-04 08:44 491K
20260504T06Z_MSC_RDPS_SpecificHumidity_IsbL-0100_RLatLon0.09_PT015H.grib2 2026-05-04 08:44 430K
20260504T06Z_MSC_RDPS_SpecificHumidity_IsbL-0150_RLatLon0.09_PT015H.grib2 2026-05-04 08:44 451K
20260504T06Z_MSC_RDPS_SpecificHumidity_IsbL-0175_RLatLon0.09_PT015H.grib2 2026-05-04 08:44 447K
20260504T06Z_MSC_RDPS_SpecificHumidity_IsbL-0200_RLatLon0.09_PT015H.grib2 2026-05-04 08:44 483K
20260504T06Z_MSC_RDPS_SpecificHumidity_IsbL-0225_RLatLon0.09_PT015H.grib2 2026-05-04 08:44 484K
20260504T06Z_MSC_RDPS_SpecificHumidity_IsbL-0250_RLatLon0.09_PT015H.grib2 2026-05-04 08:44 532K
20260504T06Z_MSC_RDPS_SpecificHumidity_IsbL-0275_RLatLon0.09_PT015H.grib2 2026-05-04 08:44 490K
20260504T06Z_MSC_RDPS_SpecificHumidity_IsbL-0300_RLatLon0.09_PT015H.grib2 2026-05-04 08:44 459K
20260504T06Z_MSC_RDPS_SpecificHumidity_IsbL-0350_RLatLon0.09_PT015H.grib2 2026-05-04 08:44 453K
20260504T06Z_MSC_RDPS_SpecificHumidity_IsbL-0400_RLatLon0.09_PT015H.grib2 2026-05-04 08:44 532K
20260504T06Z_MSC_RDPS_SpecificHumidity_IsbL-0450_RLatLon0.09_PT015H.grib2 2026-05-04 08:44 580K
20260504T06Z_MSC_RDPS_SpecificHumidity_IsbL-0500_RLatLon0.09_PT015H.grib2 2026-05-04 08:44 512K
20260504T06Z_MSC_RDPS_SpecificHumidity_IsbL-0550_RLatLon0.09_PT015H.grib2 2026-05-04 08:44 581K
20260504T06Z_MSC_RDPS_SpecificHumidity_IsbL-0600_RLatLon0.09_PT015H.grib2 2026-05-04 08:44 634K
20260504T06Z_MSC_RDPS_SpecificHumidity_IsbL-0650_RLatLon0.09_PT015H.grib2 2026-05-04 08:44 556K
20260504T06Z_MSC_RDPS_SpecificHumidity_IsbL-0700_RLatLon0.09_PT015H.grib2 2026-05-04 08:44 605K
20260504T06Z_MSC_RDPS_SpecificHumidity_IsbL-0750_RLatLon0.09_PT015H.grib2 2026-05-04 08:44 659K
20260504T06Z_MSC_RDPS_SpecificHumidity_IsbL-0800_RLatLon0.09_PT015H.grib2 2026-05-04 08:44 747K
20260504T06Z_MSC_RDPS_SpecificHumidity_IsbL-0850_RLatLon0.09_PT015H.grib2 2026-05-04 08:44 822K
20260504T06Z_MSC_RDPS_SpecificHumidity_IsbL-0875_RLatLon0.09_PT015H.grib2 2026-05-04 08:44 846K
20260504T06Z_MSC_RDPS_SpecificHumidity_IsbL-0900_RLatLon0.09_PT015H.grib2 2026-05-04 08:44 717K
20260504T06Z_MSC_RDPS_SpecificHumidity_IsbL-0925_RLatLon0.09_PT015H.grib2 2026-05-04 08:44 716K
20260504T06Z_MSC_RDPS_SpecificHumidity_IsbL-0950_RLatLon0.09_PT015H.grib2 2026-05-04 08:44 717K
20260504T06Z_MSC_RDPS_SpecificHumidity_IsbL-0970_RLatLon0.09_PT015H.grib2 2026-05-04 08:44 709K
20260504T06Z_MSC_RDPS_SpecificHumidity_IsbL-0985_RLatLon0.09_PT015H.grib2 2026-05-04 08:44 703K
20260504T06Z_MSC_RDPS_SpecificHumidity_IsbL-1000_RLatLon0.09_PT015H.grib2 2026-05-04 08:44 697K
20260504T06Z_MSC_RDPS_SpecificHumidity_IsbL-1015_RLatLon0.09_PT015H.grib2 2026-05-04 08:44 687K
20260504T06Z_MSC_RDPS_SpecificHumidity_Sfc_RLatLon0.09_PT015H.grib2 2026-05-04 08:44 347K
20260504T06Z_MSC_RDPS_StormRelativeHelicity_EtaL-10000_RLatLon0.09_PT015H.grib2 2026-05-04 08:44 1.1M
20260504T06Z_MSC_RDPS_StormSeverityIndex_EtaL-10000_RLatLon0.09_PT015H.grib2 2026-05-04 08:44 1.1M
20260504T06Z_MSC_RDPS_Thickness_IsbL-0850to0700_RLatLon0.09_PT015H.grib2 2026-05-04 08:44 180K
20260504T06Z_MSC_RDPS_Thickness_IsbL-1000to0500_RLatLon0.09_PT015H.grib2 2026-05-04 08:44 203K
20260504T06Z_MSC_RDPS_Thickness_IsbL-1000to0850_RLatLon0.09_PT015H.grib2 2026-05-04 08:44 188K
20260504T06Z_MSC_RDPS_TotalCloudCover_Sfc_RLatLon0.09_PT015H.grib2 2026-05-04 08:44 656K
20260504T06Z_MSC_RDPS_TotalTotalsIndex_Sfc_RLatLon0.09_PT015H.grib2 2026-05-04 08:44 2.4M
20260504T06Z_MSC_RDPS_UVIndex-ClearSky_Sfc_RLatLon0.09_PT015H.grib2 2026-05-04 08:44 203K
20260504T06Z_MSC_RDPS_UVIndex_Sfc_RLatLon0.09_PT015H.grib2 2026-05-04 08:44 474K
20260504T06Z_MSC_RDPS_UpwardLongwaveRadiationFlux_NTAtm_RLatLon0.09_PT015H.grib2 2026-05-04 08:44 387K
20260504T06Z_MSC_RDPS_UpwardShortwaveRadiationFlux_NTAtm_RLatLon0.09_PT015H.grib2 2026-05-04 08:44 510K
20260504T06Z_MSC_RDPS_VerticalVelocity_IsbL-0250_RLatLon0.09_PT015H.grib2 2026-05-04 08:44 447K
20260504T06Z_MSC_RDPS_VerticalVelocity_IsbL-0500_RLatLon0.09_PT015H.grib2 2026-05-04 08:44 557K
20260504T06Z_MSC_RDPS_VerticalVelocity_IsbL-0700_RLatLon0.09_PT015H.grib2 2026-05-04 08:44 612K
20260504T06Z_MSC_RDPS_VerticalVelocity_IsbL-0850_RLatLon0.09_PT015H.grib2 2026-05-04 08:44 715K
20260504T06Z_MSC_RDPS_VerticalWindShear_EtaL-6500_RLatLon0.09_PT015H.grib2 2026-05-04 08:44 1.2M
20260504T06Z_MSC_RDPS_WindChill_Sfc_RLatLon0.09_PT015H.grib2 2026-05-04 08:44 1.1M
20260504T06Z_MSC_RDPS_WindDir_AGL-10m_RLatLon0.09_PT015H.grib2 2026-05-04 08:44 963K
20260504T06Z_MSC_RDPS_WindDir_AGL-120m_RLatLon0.09_PT015H.grib2 2026-05-04 08:44 608K
20260504T06Z_MSC_RDPS_WindDir_AGL-40m_RLatLon0.09_PT015H.grib2 2026-05-04 08:44 630K
20260504T06Z_MSC_RDPS_WindDir_AGL-80m_RLatLon0.09_PT015H.grib2 2026-05-04 08:44 617K
20260504T06Z_MSC_RDPS_WindDir_IsbL-0001_RLatLon0.09_PT015H.grib2 2026-05-04 08:44 288K
20260504T06Z_MSC_RDPS_WindDir_IsbL-0005_RLatLon0.09_PT015H.grib2 2026-05-04 08:44 400K
20260504T06Z_MSC_RDPS_WindDir_IsbL-0010_RLatLon0.09_PT015H.grib2 2026-05-04 08:44 382K
20260504T06Z_MSC_RDPS_WindDir_IsbL-0020_RLatLon0.09_PT015H.grib2 2026-05-04 08:44 402K
20260504T06Z_MSC_RDPS_WindDir_IsbL-0030_RLatLon0.09_PT015H.grib2 2026-05-04 08:44 408K
20260504T06Z_MSC_RDPS_WindDir_IsbL-0050_RLatLon0.09_PT015H.grib2 2026-05-04 08:44 416K
20260504T06Z_MSC_RDPS_WindDir_IsbL-0100_RLatLon0.09_PT015H.grib2 2026-05-04 08:44 412K
20260504T06Z_MSC_RDPS_WindDir_IsbL-0150_RLatLon0.09_PT015H.grib2 2026-05-04 08:44 424K
20260504T06Z_MSC_RDPS_WindDir_IsbL-0175_RLatLon0.09_PT015H.grib2 2026-05-04 08:44 446K
20260504T06Z_MSC_RDPS_WindDir_IsbL-0200_RLatLon0.09_PT015H.grib2 2026-05-04 08:44 452K
20260504T06Z_MSC_RDPS_WindDir_IsbL-0225_RLatLon0.09_PT015H.grib2 2026-05-04 08:44 456K
20260504T06Z_MSC_RDPS_WindDir_IsbL-0250_RLatLon0.09_PT015H.grib2 2026-05-04 08:44 450K
20260504T06Z_MSC_RDPS_WindDir_IsbL-0275_RLatLon0.09_PT015H.grib2 2026-05-04 08:44 471K
20260504T06Z_MSC_RDPS_WindDir_IsbL-0300_RLatLon0.09_PT015H.grib2 2026-05-04 08:44 475K
20260504T06Z_MSC_RDPS_WindDir_IsbL-0350_RLatLon0.09_PT015H.grib2 2026-05-04 08:44 493K
20260504T06Z_MSC_RDPS_WindDir_IsbL-0400_RLatLon0.09_PT015H.grib2 2026-05-04 08:44 519K
20260504T06Z_MSC_RDPS_WindDir_IsbL-0450_RLatLon0.09_PT015H.grib2 2026-05-04 08:44 530K
20260504T06Z_MSC_RDPS_WindDir_IsbL-0500_RLatLon0.09_PT015H.grib2 2026-05-04 08:44 538K
20260504T06Z_MSC_RDPS_WindDir_IsbL-0550_RLatLon0.09_PT015H.grib2 2026-05-04 08:44 553K
20260504T06Z_MSC_RDPS_WindDir_IsbL-0600_RLatLon0.09_PT015H.grib2 2026-05-04 08:44 577K
20260504T06Z_MSC_RDPS_WindDir_IsbL-0650_RLatLon0.09_PT015H.grib2 2026-05-04 08:44 618K
20260504T06Z_MSC_RDPS_WindDir_IsbL-0700_RLatLon0.09_PT015H.grib2 2026-05-04 08:44 658K
20260504T06Z_MSC_RDPS_WindDir_IsbL-0750_RLatLon0.09_PT015H.grib2 2026-05-04 08:44 709K
20260504T06Z_MSC_RDPS_WindDir_IsbL-0800_RLatLon0.09_PT015H.grib2 2026-05-04 08:44 779K
20260504T06Z_MSC_RDPS_WindDir_IsbL-0850_RLatLon0.09_PT015H.grib2 2026-05-04 08:44 863K
20260504T06Z_MSC_RDPS_WindDir_IsbL-0875_RLatLon0.09_PT015H.grib2 2026-05-04 08:44 894K
20260504T06Z_MSC_RDPS_WindDir_IsbL-0900_RLatLon0.09_PT015H.grib2 2026-05-04 08:44 912K
20260504T06Z_MSC_RDPS_WindDir_IsbL-0925_RLatLon0.09_PT015H.grib2 2026-05-04 08:44 915K
20260504T06Z_MSC_RDPS_WindDir_IsbL-0950_RLatLon0.09_PT015H.grib2 2026-05-04 08:44 909K
20260504T06Z_MSC_RDPS_WindDir_IsbL-0970_RLatLon0.09_PT015H.grib2 2026-05-04 08:44 914K
20260504T06Z_MSC_RDPS_WindDir_IsbL-0985_RLatLon0.09_PT015H.grib2 2026-05-04 08:44 924K
20260504T06Z_MSC_RDPS_WindDir_IsbL-1000_RLatLon0.09_PT015H.grib2 2026-05-04 08:44 939K
20260504T06Z_MSC_RDPS_WindDir_IsbL-1015_RLatLon0.09_PT015H.grib2 2026-05-04 08:44 954K
20260504T06Z_MSC_RDPS_WindGust-Max_AGL-10m_RLatLon0.09_PT015H.grib2 2026-05-04 08:44 1.0M
20260504T06Z_MSC_RDPS_WindGust-Min_AGL-10m_RLatLon0.09_PT015H.grib2 2026-05-04 08:44 1.0M
20260504T06Z_MSC_RDPS_WindGust_AGL-10m_RLatLon0.09_PT015H.grib2 2026-05-04 08:44 1.0M
20260504T06Z_MSC_RDPS_WindSpeed_AGL-10m_RLatLon0.09_PT015H.grib2 2026-05-04 08:44 849K
20260504T06Z_MSC_RDPS_WindSpeed_AGL-120m_RLatLon0.09_PT015H.grib2 2026-05-04 08:44 539K
20260504T06Z_MSC_RDPS_WindSpeed_AGL-40m_RLatLon0.09_PT015H.grib2 2026-05-04 08:44 677K
20260504T06Z_MSC_RDPS_WindSpeed_AGL-80m_RLatLon0.09_PT015H.grib2 2026-05-04 08:44 541K
20260504T06Z_MSC_RDPS_WindSpeed_IsbL-0001_RLatLon0.09_PT015H.grib2 2026-05-04 08:44 255K
20260504T06Z_MSC_RDPS_WindSpeed_IsbL-0005_RLatLon0.09_PT015H.grib2 2026-05-04 08:44 348K
20260504T06Z_MSC_RDPS_WindSpeed_IsbL-0010_RLatLon0.09_PT015H.grib2 2026-05-04 08:44 358K
20260504T06Z_MSC_RDPS_WindSpeed_IsbL-0020_RLatLon0.09_PT015H.grib2 2026-05-04 08:44 415K
20260504T06Z_MSC_RDPS_WindSpeed_IsbL-0030_RLatLon0.09_PT015H.grib2 2026-05-04 08:44 317K
20260504T06Z_MSC_RDPS_WindSpeed_IsbL-0050_RLatLon0.09_PT015H.grib2 2026-05-04 08:44 352K
20260504T06Z_MSC_RDPS_WindSpeed_IsbL-0100_RLatLon0.09_PT015H.grib2 2026-05-04 08:44 486K
20260504T06Z_MSC_RDPS_WindSpeed_IsbL-0150_RLatLon0.09_PT015H.grib2 2026-05-04 08:44 388K
20260504T06Z_MSC_RDPS_WindSpeed_IsbL-0175_RLatLon0.09_PT015H.grib2 2026-05-04 08:44 434K
20260504T06Z_MSC_RDPS_WindSpeed_IsbL-0200_RLatLon0.09_PT015H.grib2 2026-05-04 08:44 447K
20260504T06Z_MSC_RDPS_WindSpeed_IsbL-0225_RLatLon0.09_PT015H.grib2 2026-05-04 08:44 455K
20260504T06Z_MSC_RDPS_WindSpeed_IsbL-0250_RLatLon0.09_PT015H.grib2 2026-05-04 08:44 456K
20260504T06Z_MSC_RDPS_WindSpeed_IsbL-0275_RLatLon0.09_PT015H.grib2 2026-05-04 08:44 471K
20260504T06Z_MSC_RDPS_WindSpeed_IsbL-0300_RLatLon0.09_PT015H.grib2 2026-05-04 08:44 471K
20260504T06Z_MSC_RDPS_WindSpeed_IsbL-0350_RLatLon0.09_PT015H.grib2 2026-05-04 08:44 481K
20260504T06Z_MSC_RDPS_WindSpeed_IsbL-0400_RLatLon0.09_PT015H.grib2 2026-05-04 08:44 484K
20260504T06Z_MSC_RDPS_WindSpeed_IsbL-0450_RLatLon0.09_PT015H.grib2 2026-05-04 08:44 468K
20260504T06Z_MSC_RDPS_WindSpeed_IsbL-0500_RLatLon0.09_PT015H.grib2 2026-05-04 08:44 470K
20260504T06Z_MSC_RDPS_WindSpeed_IsbL-0550_RLatLon0.09_PT015H.grib2 2026-05-04 08:44 589K
20260504T06Z_MSC_RDPS_WindSpeed_IsbL-0600_RLatLon0.09_PT015H.grib2 2026-05-04 08:44 599K
20260504T06Z_MSC_RDPS_WindSpeed_IsbL-0650_RLatLon0.09_PT015H.grib2 2026-05-04 08:44 620K
20260504T06Z_MSC_RDPS_WindSpeed_IsbL-0700_RLatLon0.09_PT015H.grib2 2026-05-04 08:44 643K
20260504T06Z_MSC_RDPS_WindSpeed_IsbL-0750_RLatLon0.09_PT015H.grib2 2026-05-04 08:44 715K
20260504T06Z_MSC_RDPS_WindSpeed_IsbL-0800_RLatLon0.09_PT015H.grib2 2026-05-04 08:44 764K
20260504T06Z_MSC_RDPS_WindSpeed_IsbL-0850_RLatLon0.09_PT015H.grib2 2026-05-04 08:44 827K
20260504T06Z_MSC_RDPS_WindSpeed_IsbL-0875_RLatLon0.09_PT015H.grib2 2026-05-04 08:44 849K
20260504T06Z_MSC_RDPS_WindSpeed_IsbL-0900_RLatLon0.09_PT015H.grib2 2026-05-04 08:44 861K
20260504T06Z_MSC_RDPS_WindSpeed_IsbL-0925_RLatLon0.09_PT015H.grib2 2026-05-04 08:44 872K
20260504T06Z_MSC_RDPS_WindSpeed_IsbL-0950_RLatLon0.09_PT015H.grib2 2026-05-04 08:44 872K
20260504T06Z_MSC_RDPS_WindSpeed_IsbL-0970_RLatLon0.09_PT015H.grib2 2026-05-04 08:44 869K
20260504T06Z_MSC_RDPS_WindSpeed_IsbL-0985_RLatLon0.09_PT015H.grib2 2026-05-04 08:44 864K
20260504T06Z_MSC_RDPS_WindSpeed_IsbL-1000_RLatLon0.09_PT015H.grib2 2026-05-04 08:44 858K
20260504T06Z_MSC_RDPS_WindSpeed_IsbL-1015_RLatLon0.09_PT015H.grib2 2026-05-04 08:44 850K
20260504T06Z_MSC_RDPS_WindU_AGL-10m_RLatLon0.09_PT015H.grib2 2026-05-04 08:44 437K
20260504T06Z_MSC_RDPS_WindU_AGL-120m_RLatLon0.09_PT015H.grib2 2026-05-04 08:44 536K
20260504T06Z_MSC_RDPS_WindU_AGL-40m_RLatLon0.09_PT015H.grib2 2026-05-04 08:44 540K
20260504T06Z_MSC_RDPS_WindU_AGL-80m_RLatLon0.09_PT015H.grib2 2026-05-04 08:44 537K
20260504T06Z_MSC_RDPS_WindU_IsbL-0001_RLatLon0.09_PT015H.grib2 2026-05-04 08:44 269K
20260504T06Z_MSC_RDPS_WindU_IsbL-0005_RLatLon0.09_PT015H.grib2 2026-05-04 08:44 284K
20260504T06Z_MSC_RDPS_WindU_IsbL-0010_RLatLon0.09_PT015H.grib2 2026-05-04 08:44 295K
20260504T06Z_MSC_RDPS_WindU_IsbL-0020_RLatLon0.09_PT015H.grib2 2026-05-04 08:44 312K
20260504T06Z_MSC_RDPS_WindU_IsbL-0030_RLatLon0.09_PT015H.grib2 2026-05-04 08:44 351K
20260504T06Z_MSC_RDPS_WindU_IsbL-0050_RLatLon0.09_PT015H.grib2 2026-05-04 08:44 381K
20260504T06Z_MSC_RDPS_WindU_IsbL-0100_RLatLon0.09_PT015H.grib2 2026-05-04 08:44 439K
20260504T06Z_MSC_RDPS_WindU_IsbL-0150_RLatLon0.09_PT015H.grib2 2026-05-04 08:44 405K
20260504T06Z_MSC_RDPS_WindU_IsbL-0175_RLatLon0.09_PT015H.grib2 2026-05-04 08:44 428K
20260504T06Z_MSC_RDPS_WindU_IsbL-0200_RLatLon0.09_PT015H.grib2 2026-05-04 08:44 342K
20260504T06Z_MSC_RDPS_WindU_IsbL-0225_RLatLon0.09_PT015H.grib2 2026-05-04 08:44 347K
20260504T06Z_MSC_RDPS_WindU_IsbL-0250_RLatLon0.09_PT015H.grib2 2026-05-04 08:44 347K
20260504T06Z_MSC_RDPS_WindU_IsbL-0275_RLatLon0.09_PT015H.grib2 2026-05-04 08:44 360K
20260504T06Z_MSC_RDPS_WindU_IsbL-0300_RLatLon0.09_PT015H.grib2 2026-05-04 08:44 357K
20260504T06Z_MSC_RDPS_WindU_IsbL-0350_RLatLon0.09_PT015H.grib2 2026-05-04 08:44 366K
20260504T06Z_MSC_RDPS_WindU_IsbL-0400_RLatLon0.09_PT015H.grib2 2026-05-04 08:44 473K
20260504T06Z_MSC_RDPS_WindU_IsbL-0450_RLatLon0.09_PT015H.grib2 2026-05-04 08:44 474K
20260504T06Z_MSC_RDPS_WindU_IsbL-0500_RLatLon0.09_PT015H.grib2 2026-05-04 08:44 476K
20260504T06Z_MSC_RDPS_WindU_IsbL-0550_RLatLon0.09_PT015H.grib2 2026-05-04 08:44 478K
20260504T06Z_MSC_RDPS_WindU_IsbL-0600_RLatLon0.09_PT015H.grib2 2026-05-04 08:44 488K
20260504T06Z_MSC_RDPS_WindU_IsbL-0650_RLatLon0.09_PT015H.grib2 2026-05-04 08:44 506K
20260504T06Z_MSC_RDPS_WindU_IsbL-0700_RLatLon0.09_PT015H.grib2 2026-05-04 08:44 512K
20260504T06Z_MSC_RDPS_WindU_IsbL-0750_RLatLon0.09_PT015H.grib2 2026-05-04 08:44 537K
20260504T06Z_MSC_RDPS_WindU_IsbL-0800_RLatLon0.09_PT015H.grib2 2026-05-04 08:44 580K
20260504T06Z_MSC_RDPS_WindU_IsbL-0850_RLatLon0.09_PT015H.grib2 2026-05-04 08:44 634K
20260504T06Z_MSC_RDPS_WindU_IsbL-0875_RLatLon0.09_PT015H.grib2 2026-05-04 08:44 652K
20260504T06Z_MSC_RDPS_WindU_IsbL-0900_RLatLon0.09_PT015H.grib2 2026-05-04 08:44 660K
20260504T06Z_MSC_RDPS_WindU_IsbL-0925_RLatLon0.09_PT015H.grib2 2026-05-04 08:44 667K
20260504T06Z_MSC_RDPS_WindU_IsbL-0950_RLatLon0.09_PT015H.grib2 2026-05-04 08:44 663K
20260504T06Z_MSC_RDPS_WindU_IsbL-0970_RLatLon0.09_PT015H.grib2 2026-05-04 08:44 801K
20260504T06Z_MSC_RDPS_WindU_IsbL-0985_RLatLon0.09_PT015H.grib2 2026-05-04 08:44 796K
20260504T06Z_MSC_RDPS_WindU_IsbL-1000_RLatLon0.09_PT015H.grib2 2026-05-04 08:44 792K
20260504T06Z_MSC_RDPS_WindU_IsbL-1015_RLatLon0.09_PT015H.grib2 2026-05-04 08:44 834K
20260504T06Z_MSC_RDPS_WindV_AGL-10m_RLatLon0.09_PT015H.grib2 2026-05-04 08:44 439K
20260504T06Z_MSC_RDPS_WindV_AGL-120m_RLatLon0.09_PT015H.grib2 2026-05-04 08:44 537K
20260504T06Z_MSC_RDPS_WindV_AGL-40m_RLatLon0.09_PT015H.grib2 2026-05-04 08:44 543K
20260504T06Z_MSC_RDPS_WindV_AGL-80m_RLatLon0.09_PT015H.grib2 2026-05-04 08:44 539K
20260504T06Z_MSC_RDPS_WindV_IsbL-0001_RLatLon0.09_PT015H.grib2 2026-05-04 08:44 247K
20260504T06Z_MSC_RDPS_WindV_IsbL-0005_RLatLon0.09_PT015H.grib2 2026-05-04 08:44 286K
20260504T06Z_MSC_RDPS_WindV_IsbL-0010_RLatLon0.09_PT015H.grib2 2026-05-04 08:44 295K
20260504T06Z_MSC_RDPS_WindV_IsbL-0020_RLatLon0.09_PT015H.grib2 2026-05-04 08:44 312K
20260504T06Z_MSC_RDPS_WindV_IsbL-0030_RLatLon0.09_PT015H.grib2 2026-05-04 08:44 313K
20260504T06Z_MSC_RDPS_WindV_IsbL-0050_RLatLon0.09_PT015H.grib2 2026-05-04 08:44 345K
20260504T06Z_MSC_RDPS_WindV_IsbL-0100_RLatLon0.09_PT015H.grib2 2026-05-04 08:44 340K
20260504T06Z_MSC_RDPS_WindV_IsbL-0150_RLatLon0.09_PT015H.grib2 2026-05-04 08:44 401K
20260504T06Z_MSC_RDPS_WindV_IsbL-0175_RLatLon0.09_PT015H.grib2 2026-05-04 08:44 329K
20260504T06Z_MSC_RDPS_WindV_IsbL-0200_RLatLon0.09_PT015H.grib2 2026-05-04 08:44 365K
20260504T06Z_MSC_RDPS_WindV_IsbL-0225_RLatLon0.09_PT015H.grib2 2026-05-04 08:44 370K
20260504T06Z_MSC_RDPS_WindV_IsbL-0250_RLatLon0.09_PT015H.grib2 2026-05-04 08:44 370K
20260504T06Z_MSC_RDPS_WindV_IsbL-0275_RLatLon0.09_PT015H.grib2 2026-05-04 08:44 382K
20260504T06Z_MSC_RDPS_WindV_IsbL-0300_RLatLon0.09_PT015H.grib2 2026-05-04 08:44 381K
20260504T06Z_MSC_RDPS_WindV_IsbL-0350_RLatLon0.09_PT015H.grib2 2026-05-04 08:44 387K
20260504T06Z_MSC_RDPS_WindV_IsbL-0400_RLatLon0.09_PT015H.grib2 2026-05-04 08:44 366K
20260504T06Z_MSC_RDPS_WindV_IsbL-0450_RLatLon0.09_PT015H.grib2 2026-05-04 08:44 367K
20260504T06Z_MSC_RDPS_WindV_IsbL-0500_RLatLon0.09_PT015H.grib2 2026-05-04 08:44 472K
20260504T06Z_MSC_RDPS_WindV_IsbL-0550_RLatLon0.09_PT015H.grib2 2026-05-04 08:44 474K
20260504T06Z_MSC_RDPS_WindV_IsbL-0600_RLatLon0.09_PT015H.grib2 2026-05-04 08:44 485K
20260504T06Z_MSC_RDPS_WindV_IsbL-0650_RLatLon0.09_PT015H.grib2 2026-05-04 08:44 503K
20260504T06Z_MSC_RDPS_WindV_IsbL-0700_RLatLon0.09_PT015H.grib2 2026-05-04 08:44 521K
20260504T06Z_MSC_RDPS_WindV_IsbL-0750_RLatLon0.09_PT015H.grib2 2026-05-04 08:44 544K
20260504T06Z_MSC_RDPS_WindV_IsbL-0800_RLatLon0.09_PT015H.grib2 2026-05-04 08:44 585K
20260504T06Z_MSC_RDPS_WindV_IsbL-0850_RLatLon0.09_PT015H.grib2 2026-05-04 08:44 627K
20260504T06Z_MSC_RDPS_WindV_IsbL-0875_RLatLon0.09_PT015H.grib2 2026-05-04 08:44 647K
20260504T06Z_MSC_RDPS_WindV_IsbL-0900_RLatLon0.09_PT015H.grib2 2026-05-04 08:44 659K
20260504T06Z_MSC_RDPS_WindV_IsbL-0925_RLatLon0.09_PT015H.grib2 2026-05-04 08:44 667K
20260504T06Z_MSC_RDPS_WindV_IsbL-0950_RLatLon0.09_PT015H.grib2 2026-05-04 08:44 665K
20260504T06Z_MSC_RDPS_WindV_IsbL-0970_RLatLon0.09_PT015H.grib2 2026-05-04 08:44 663K
20260504T06Z_MSC_RDPS_WindV_IsbL-0985_RLatLon0.09_PT015H.grib2 2026-05-04 08:44 800K
20260504T06Z_MSC_RDPS_WindV_IsbL-1000_RLatLon0.09_PT015H.grib2 2026-05-04 08:44 796K
20260504T06Z_MSC_RDPS_WindV_IsbL-1015_RLatLon0.09_PT015H.grib2 2026-05-04 08:44 790K